| time (UTC) | temp C | wind direction | speed KPH | gust KPH | rain 1hr cm | rain 24hr cm | rain mn cm | humidity % | barometer mb |
| 20260509011558 | 16 | 304 | 9.7 | 19.3 | 0.00 | 0.00 | 0.00 | 35 | 1002.3 |
| 20260509010055 | 17 | 322 | 16.1 | 24.1 | 0.00 | 0.00 | 0.00 | 33 | 1002.1 |
| 20260509004600 | 18 | 302 | 17.7 | 27.4 | 0.00 | 0.00 | 0.00 | 32 | 1002.1 |
| 20260509003057 | 18 | 306 | 19.3 | 33.8 | 0.00 | 0.00 | 0.00 | 31 | 1002.2 |
| 20260509001554 | 19 | 314 | 25.7 | 33.8 | 0.00 | 0.00 | 0.00 | 31 | 1002.0 |
| 20260509000055 | 19 | 295 | 24.1 | 40.2 | 0.00 | 0.00 | 0.00 | 30 | 1002.0 |
| 20260508234553 | 20 | 304 | 25.7 | 40.2 | 0.00 | 0.00 | 0.00 | 29 | 1002.0 |
| 20260508233052 | 20 | 308 | 24.1 | 38.6 | 0.00 | 0.00 | 0.00 | 27 | 1002.0 |
| 20260508231551 | 20 | 299 | 30.6 | 43.5 | 0.00 | 0.00 | 0.00 | 26 | 1001.9 |
| 20260508230051 | 20 | 336 | 33.8 | 46.7 | 0.00 | 0.00 | 0.00 | 25 | 1001.9 |
| 20260508224620 | 20 | 321 | 30.6 | 43.5 | 0.00 | 0.00 | 0.00 | 26 | 1002.0 |
| 20260508223053 | 21 | 283 | 30.6 | 49.9 | 0.00 | 0.00 | 0.00 | 25 | 1001.9 |
| 20260508221550 | 21 | 340 | 32.2 | 41.8 | 0.00 | 0.00 | 0.00 | 24 | 1001.7 |
| 20260508220053 | 21 | 320 | 33.8 | 46.7 | 0.00 | 0.00 | 0.00 | 24 | 1001.8 |
| 20260508214551 | 21 | 316 | 35.4 | 49.9 | 0.00 | 0.00 | 0.00 | 24 | 1001.7 |
| 20260508213047 | 21 | 302 | 33.8 | 49.9 | 0.00 | 0.00 | 0.00 | 25 | 1001.7 |
| 20260508211552 | 21 | 329 | 24.1 | 46.7 | 0.00 | 0.00 | 0.00 | 28 | 1001.5 |
| 20260508210048 | 22 | 285 | 27.4 | 38.6 | 0.00 | 0.00 | 0.00 | 28 | 1001.5 |
| 20260508204546 | 21 | 293 | 20.9 | 43.5 | 0.00 | 0.00 | 0.00 | 29 | 1001.5 |
| 20260508203047 | 22 | 320 | 29.0 | 43.5 | 0.00 | 0.00 | 0.00 | 28 | 1001.5 |
| 20260508201545 | 22 | 276 | 29.0 | 49.9 | 0.00 | 0.00 | 0.00 | 27 | 1001.5 |
| 20260508200043 | 22 | 269 | 17.7 | 38.6 | 0.00 | 0.00 | 0.00 | 26 | 1001.6 |
| 20260508194542 | 22 | 317 | 25.7 | 38.6 | 0.00 | 0.00 | 0.00 | 26 | 1001.7 |
| 20260508193040 | 21 | 326 | 24.1 | 38.6 | 0.00 | 0.00 | 0.00 | 27 | 1001.9 |
| 20260508191546 | 21 | 340 | 30.6 | 48.3 | 0.00 | 0.00 | 0.00 | 27 | 1002.0 |
| 20260508190141 | 21 | 307 | 17.7 | 38.6 | 0.00 | 0.00 | 0.00 | 28 | 1002.0 |
| 20260508184539 | 22 | 323 | 33.8 | 46.7 | 0.00 | 0.00 | 0.00 | 27 | 1002.0 |
| 20260508183035 | 21 | 280 | 22.5 | 29.0 | 0.00 | 0.00 | 0.00 | 28 | 1002.3 |
| 20260508181535 | 21 | 266 | 17.7 | 33.8 | 0.00 | 0.00 | 0.00 | 27 | 1002.4 |
| 20260508180036 | 21 | 300 | 20.9 | 40.2 | 0.00 | 0.00 | 0.00 | 27 | 1002.6 |
| 20260508174530 | 20 | 279 | 20.9 | 29.0 | 0.00 | 0.00 | 0.00 | 29 | 1002.7 |
| 20260508173028 | 20 | 236 | 20.9 | 30.6 | 0.00 | 0.00 | 0.00 | 26 | 1002.9 |
| 20260508171528 | 20 | 268 | 20.9 | 30.6 | 0.00 | 0.00 | 0.00 | 26 | 1003.2 |
| 20260508170023 | 19 | 253 | 20.9 | 33.8 | 0.00 | 0.00 | 0.00 | 27 | 1003.5 |
| 20260508164521 | 18 | 263 | 19.3 | 33.8 | 0.00 | 0.00 | 0.00 | 28 | 1003.6 |
| 20260508163029 | 18 | 266 | 19.3 | 29.0 | 0.00 | 0.00 | 0.00 | 29 | 1003.7 |
| 20260508161520 | 18 | 236 | 24.1 | 32.2 | 0.00 | 0.00 | 0.00 | 28 | 1003.7 |
| 20260508160023 | 19 | 264 | 17.7 | 30.6 | 0.00 | 0.00 | 0.00 | 26 | 1003.7 |
| 20260508154519 | 18 | 265 | 17.7 | 33.8 | 0.00 | 0.00 | 0.00 | 30 | 1003.8 |
| 20260508153015 | 18 | 276 | 17.7 | 29.0 | 0.00 | 0.00 | 0.00 | 29 | 1004.0 |
| 20260508151512 | 18 | 260 | 19.3 | 30.6 | 0.00 | 0.00 | 0.00 | 30 | 1004.3 |
| 20260508150025 | 17 | 254 | 16.1 | 29.0 | 0.00 | 0.00 | 0.00 | 31 | 1004.5 |
| 20260508144506 | 17 | 226 | 20.9 | 32.2 | 0.00 | 0.00 | 0.00 | 30 | 1004.7 |
| 20260508143007 | 16 | 233 | 22.5 | 32.2 | 0.00 | 0.00 | 0.00 | 30 | 1004.8 |
| 20260508141605 | 16 | 250 | 20.9 | 30.6 | 0.00 | 0.00 | 0.00 | 31 | 1004.8 |
| 20260508140106 | 16 | 229 | 17.7 | 25.7 | 0.00 | 0.00 | 0.00 | 37 | 1004.9 |
| 20260508134549 | 15 | 240 | 17.7 | 29.0 | 0.00 | 0.00 | 0.00 | 38 | 1005.1 |
| 20260508133049 | 13 | 240 | 19.3 | 27.4 | 0.00 | 0.00 | 0.00 | 42 | 1005.5 |
| 20260508131541 | 12 | 221 | 17.7 | 22.5 | 0.00 | 0.00 | 0.00 | 45 | 1005.5 |
| 20260508130037 | 10 | 232 | 17.7 | 25.7 | 0.00 | 0.00 | 0.00 | 49 | 1005.6 |
| 20260508124534 | 9 | 237 | 22.5 | 29.0 | 0.00 | 0.00 | 0.00 | 52 | 1005.4 |
| 20260508123034 | 8 | 220 | 17.7 | 24.1 | 0.00 | 0.00 | 0.00 | 52 | 1005.3 |
| 20260508121529 | 8 | 226 | 19.3 | 27.4 | 0.00 | 0.00 | 0.00 | 53 | 1005.3 |
| 20260508120028 | 7 | 214 | 20.9 | 29.0 | 0.00 | 0.00 | 0.00 | 54 | 1005.4 |
| 20260508114524 | 7 | 226 | 14.5 | 20.9 | 0.00 | 0.00 | 0.00 | 57 | 1005.4 |
| 20260508113021 | 8 | 210 | 19.3 | 27.4 | 0.00 | 0.00 | 0.00 | 52 | 1005.4 |
| 20260508111519 | 8 | 213 | 19.3 | 27.4 | 0.00 | 0.00 | 0.00 | 51 | 1005.4 |
| 20260508110017 | 8 | 219 | 19.3 | 25.7 | 0.00 | 0.00 | 0.00 | 48 | 1005.6 |
| 20260508104517 | 8 | 210 | 17.7 | 24.1 | 0.00 | 0.00 | 0.00 | 47 | 1005.8 |
| 20260508103019 | 8 | 217 | 19.3 | 24.1 | 0.00 | 0.00 | 0.00 | 47 | 1005.8 |
| 20260508101517 | 7 | 217 | 16.1 | 20.9 | 0.00 | 0.00 | 0.00 | 50 | 1005.9 |
| 20260508100022 | 7 | 231 | 14.5 | 22.5 | 0.00 | 0.00 | 0.00 | 50 | 1005.9 |
| 20260508094513 | 7 | 226 | 14.5 | 20.9 | 0.00 | 0.00 | 0.00 | 48 | 1005.8 |
| 20260508093013 | 8 | 224 | 17.7 | 22.5 | 0.00 | 0.00 | 0.00 | 45 | 1005.8 |
| 20260508091510 | 8 | 207 | 19.3 | 24.1 | 0.00 | 0.00 | 0.00 | 44 | 1005.9 |
| 20260508090008 | 8 | 214 | 17.7 | 20.9 | 0.00 | 0.00 | 0.00 | 48 | 1005.9 |
| 20260508084506 | 8 | 214 | 17.7 | 24.1 | 0.00 | 0.00 | 0.00 | 50 | 1005.9 |
| 20260508083002 | 7 | 219 | 17.7 | 22.5 | 0.00 | 0.00 | 0.00 | 51 | 1006.0 |
| 20260508081501 | 7 | 208 | 17.7 | 20.9 | 0.00 | 0.00 | 0.00 | 51 | 1006.0 |
| 20260508080111 | 7 | 212 | 14.5 | 20.9 | 0.00 | 0.00 | 0.00 | 52 | 1006.2 |
| 20260508074614 | 7 | 214 | 17.7 | 22.5 | 0.00 | 0.00 | 0.00 | 53 | 1006.3 |
| 20260508073059 | 6 | 207 | 16.1 | 20.9 | 0.00 | 0.00 | 0.00 | 53 | 1006.3 |
| 20260508071554 | 6 | 209 | 16.1 | 20.9 | 0.00 | 0.00 | 0.00 | 51 | 1006.5 |
| 20260508070055 | 6 | 224 | 14.5 | 19.3 | 0.00 | 0.00 | 0.00 | 52 | 1006.6 |
| 20260508064557 | 6 | 209 | 14.5 | 19.3 | 0.00 | 0.00 | 0.00 | 54 | 1006.7 |
| 20260508063053 | 6 | 217 | 14.5 | 17.7 | 0.00 | 0.00 | 0.00 | 54 | 1006.8 |
| 20260508061548 | 6 | 210 | 12.9 | 17.7 | 0.00 | 0.00 | 0.00 | 52 | 1006.9 |
| 20260508060046 | 6 | 203 | 12.9 | 17.7 | 0.00 | 0.00 | 0.00 | 53 | 1007.0 |
| 20260508054548 | 6 | 210 | 12.9 | 16.1 | 0.00 | 0.00 | 0.00 | 54 | 1007.0 |
| 20260508053052 | 6 | 214 | 12.9 | 17.7 | 0.00 | 0.00 | 0.00 | 54 | 1007.0 |
| 20260508051546 | 6 | 217 | 12.9 | 16.1 | 0.00 | 0.00 | 0.00 | 54 | 1007.1 |
| 20260508050139 | 5 | 217 | 11.3 | 14.5 | 0.00 | 0.00 | 0.00 | 56 | 1007.1 |
| 20260508044536 | 5 | 214 | 11.3 | 14.5 | 0.00 | 0.00 | 0.00 | 57 | 1007.3 |
| 20260508043035 | 5 | 226 | 9.7 | 12.9 | 0.00 | 0.00 | 0.00 | 63 | 1007.6 |
| 20260508041534 | 5 | 229 | 9.7 | 11.3 | 0.00 | 0.00 | 0.00 | 64 | 1007.6 |
| 20260508040048 | 5 | 229 | 9.7 | 11.3 | 0.00 | 0.00 | 0.00 | 63 | 1007.7 |
| 20260508034541 | 4 | 229 | 9.7 | 11.3 | 0.00 | 0.00 | 0.00 | 63 | 1007.7 |
| 20260508033033 | 5 | 236 | 9.7 | 11.3 | 0.00 | 0.00 | 0.00 | 59 | 1007.8 |
| 20260508031534 | 5 | 229 | 9.7 | 11.3 | 0.00 | 0.00 | 0.00 | 56 | 1007.8 |
| 20260508030033 | 5 | 231 | 9.7 | 11.3 | 0.00 | 0.00 | 0.00 | 55 | 1007.8 |
| 20260508024532 | 5 | 232 | 9.7 | 11.3 | 0.00 | 0.00 | 0.00 | 55 | 1007.8 |
| 20260508023033 | 6 | 228 | 9.7 | 11.3 | 0.00 | 0.00 | 0.00 | 54 | 1007.8 |
| 20260508021533 | 6 | 221 | 6.4 | 8.0 | 0.00 | 0.00 | 0.00 | 51 | 1007.6 |
| 20260508020030 | 6 | 241 | 4.8 | 8.0 | 0.00 | 0.00 | 0.00 | 47 | 1007.6 |
| 20260508014530 | 7 | 317 | 3.2 | 4.8 | 0.00 | 0.00 | 0.00 | 44 | 1007.5 |
| 20260508013032 | 10 | 317 | 0.0 | 1.6 | 0.00 | 0.00 | 0.00 | 40 | 1007.5 |